"Sample Date","Sample Time","Sample Value","Units","Flow Rate","Sample Interval","Number Channels","Micron Size 0","Counts/Channel 0","Micron Size 1","Counts/Channel 1","Micron Size 2","Counts/Channel 2","Micron Size 3","Counts/Channel 3","Micron Size 4","Counts/Channel 4","Micron Size 5","Counts/Channel 5","Micron Size 6","Counts/Channel 6","Micron Size 7","Counts/Channel 7","Micron Size 8","Counts/Channel 8","Micron Size 9","Counts/Channel 9","Micron Size 10","Counts/Channel 10","Micron Size 11","Counts/Channel 11","Micron Size 12","Counts/Channel 12","Micron Size 13","Counts/Channel 13","Micron Size 14","Counts/Channel 14","Micron Size 15","Counts/Channel 15","Micron Size 16","Counts/Channel 16","Micron Size 17","Counts/Channel 17","Micron Size 18","Counts/Channel 18","Micron Size 19","Counts/Channel 19","Micron Size 20","Counts/Channel 20","Micron Size 21","Counts/Channel 21","Micron Size 22","Counts/Channel 22","Micron Size 23","Counts/Channel 23","Micron Size 24","Counts/Channel 24","Micron Size 25","Counts/Channel 25","Micron Size 26","Counts/Channel 26","Micron Size 27","Counts/Channel 27","Micron Size 28","Counts/Channel 28","Micron Size 29","Counts/Channel 29","Micron Size 30","Counts/Channel 30","Micron Size 31","Counts/Channel 31"
"03/06/08","10:00:02",55919.000,"cc",28351.279,6.00,6,0.100,48015.000,0.200,5311.000,0.300,1252.000,0.500,1128.000,1.000,213.000,5.000,0
"03/06/08","10:00:08",55347.000,"cc",28344.022,6.00,6,0.100,47429.000,0.200,5254.000,0.300,1308.000,0.500,1140.000,1.000,216.000,5.000,0
"03/06/08","10:00:14",55337.000,"cc",28310.639,6.00,6,0.100,47385.000,0.200,5203.000,0.300,1313.000,0.500,1217.000,1.000,219.000,5.000,0
"03/06/08","10:00:20",55922.000,"cc",28291.022,6.00,6,0.100,47877.000,0.200,5400.000,0.300,1238.000,0.500,1167.000,1.000,240.000,5.000,0
"03/06/08","10:00:26",55674.000,"cc",28383.754,6.00,6,0.100,47852.000,0.200,5204.000,0.300,1275.000,0.500,1130.000,1.000,213.000,5.000,0
"03/06/08","10:00:32",55264.000,"cc",28300.043,6.00,6,0.100,47390.000,0.200,5334.000,0.300,1218.000,0.500,1110.000,1.000,212.000,5.000,0
"03/06/08","10:00:38",55358.000,"cc",28382.846,6.00,6,0.100,47472.000,0.200,5323.000,0.300,1243.000,0.500,1120.000,1.000,200.000,5.000,0
"03/06/08","10:00:44",55371.000,"cc",28281.754,6.00,6,0.100,47452.000,0.200,5273.000,0.300,1270.000,0.500,1150.000,1.000,226.000,5.000,0
"03/06/08","10:00:50",55639.000,"cc",28218.897,6.00,6,0.100,47654.000,0.200,5340.000,0.300,1307.000,0.500,1127.000,1.000,211.000,5.000,0
"03/06/08","10:00:56",54913.000,"cc",28361.619,6.00,6,0.100,47017.000,0.200,5383.000,0.300,1246.000,0.500,1083.000,1.000,184.000,5.000,0
"03/06/08","10:01:02",55644.000,"cc",28303.539,6.00,6,0.100,47643.000,0.200,5450.000,0.300,1237.000,0.500,1125.000,1.000,189.000,5.000,0
"03/06/08","10:01:08",55309.000,"cc",28366.508,6.00,6,0.100,47392.000,0.200,5354.000,0.300,1242.000,0.500,1102.000,1.000,219.000,5.000,0
"03/06/08","10:01:14",55017.000,"cc",28355.176,6.00,6,0.100,47185.000,0.200,5300.000,0.300,1242.000,0.500,1108.000,1.000,182.000,5.000,0
"03/06/08","10:01:20",55308.000,"cc",28319.539,6.00,6,0.100,47390.000,0.200,5332.000,0.300,1256.000,0.500,1118.000,1.000,212.000,5.000,0
"03/06/08","10:01:26",55147.000,"cc",28314.402,6.00,6,0.100,47435.000,0.200,5210.000,0.300,1192.000,0.500,1098.000,1.000,212.000,5.000,0
"03/06/08","10:01:32",54954.000,"cc",28251.748,6.00,6,0.100,47038.000,0.200,5344.000,0.300,1255.000,0.500,1120.000,1.000,197.000,5.000,0
"03/06/08","10:01:38",55586.000,"cc",28331.264,6.00,6,0.100,47567.000,0.200,5477.000,0.300,1229.000,0.500,1105.000,1.000,208.000,5.000,0
"03/06/08","10:01:44",55589.000,"cc",28311.246,6.00,6,0.100,47538.000,0.200,5375.000,0.300,1340.000,0.500,1141.000,1.000,195.000,5.000,0
"03/06/08","10:01:50",55832.000,"cc",28339.219,6.00,6,0.100,47843.000,0.200,5385.000,0.300,1278.000,0.500,1131.000,1.000,195.000,5.000,0
"03/06/08","10:01:56",54963.000,"cc",28324.832,6.00,6,0.100,47263.000,0.200,5247.000,0.300,1199.000,0.500,1065.000,1.000,189.000,5.000,0
"03/06/08","10:02:02",54986.000,"cc",28292.025,6.00,6,0.100,47072.000,0.200,5373.000,0.300,1222.000,0.500,1124.000,1.000,195.000,5.000,0
"03/06/08","10:02:08",55350.000,"cc",28338.756,6.00,6,0.100,47546.000,0.200,5374.000,0.300,1225.000,0.500,1011.000,1.000,194.000,5.000,0
"03/06/08","10:02:14",55309.000,"cc",28305.748,6.00,6,0.100,47341.000,0.200,5323.000,0.300,1268.000,0.500,1170.000,1.000,207.000,5.000,0
"03/06/08","10:02:20",55006.000,"cc",28259.678,6.00,6,0.100,47196.000,0.200,5319.000,0.300,1255.000,0.500,1061.000,1.000,175.000,5.000,0
"03/06/08","10:02:26",55163.000,"cc",28365.863,6.00,6,0.100,47264.000,0.200,5502.000,0.300,1203.000,0.500,1019.000,1.000,175.000,5.000,0
"03/06/08","10:02:32",54923.000,"cc",28354.549,6.00,6,0.100,47364.000,0.200,5256.000,0.300,1173.000,0.500,990.000,1.000,140.000,5.000,0
"03/06/08","10:02:38",54847.000,"cc",28243.152,6.00,6,0.100,47423.000,0.200,5222.000,0.300,1150.000,0.500,919.000,1.000,133.000,5.000,0
"03/06/08","10:02:44",55030.000,"cc",28322.924,6.00,6,0.100,47310.000,0.200,5421.000,0.300,1190.000,0.500,960.000,1.000,149.000,5.000,0
"03/06/08","10:02:50",54992.000,"cc",28330.662,6.00,6,0.100,47361.000,0.200,5332.000,0.300,1162.000,0.500,986.000,1.000,151.000,5.000,0
"03/06/08","10:02:56",55474.000,"cc",28341.279,6.00,6,0.100,47778.000,0.200,5340.000,0.300,1219.000,0.500,984.000,1.000,153.000,5.000,0
"03/06/08","10:03:02",55290.000,"cc",28438.617,6.00,6,0.100,47778.000,0.200,5341.000,0.300,1127.000,0.500,940.000,1.000,104.000,5.000,0
"03/06/08","10:03:08",54744.000,"cc",28278.797,6.00,6,0.100,47161.000,0.200,5386.000,0.300,1127.000,0.500,944.000,1.000,126.000,5.000,0
"03/06/08","10:03:14",54750.000,"cc",28253.953,6.00,6,0.100,47218.000,0.200,5284.000,0.300,1179.000,0.500,919.000,1.000,150.000,5.000,0
"03/06/08","10:03:20",55434.000,"cc",28304.141,6.00,6,0.100,47726.000,0.200,5429.000,0.300,1216.000,0.500,917.000,1.000,146.000,5.000,0
"03/06/08","10:03:26",54888.000,"cc",28313.955,6.00,6,0.100,47406.000,0.200,5433.000,0.300,1158.000,0.500,812.000,1.000,79.000,5.000,0
"03/06/08","10:03:32",54733.000,"cc",28324.832,6.00,6,0.100,47295.000,0.200,5328.000,0.300,1188.000,0.500,808.000,1.000,114.000,5.000,0
"03/06/08","10:03:38",54969.000,"cc",28374.863,6.00,6,0.100,47422.000,0.200,5386.000,0.300,1197.000,0.500,863.000,1.000,101.000,5.000,0
"03/06/08","10:03:44",54907.000,"cc",28350.768,6.00,6,0.100,47441.000,0.200,5379.000,0.300,1187.000,0.500,811.000,1.000,89.000,5.000,0
"03/06/08","10:03:50",55599.000,"cc",28289.754,6.00,6,0.100,48025.000,0.200,5506.000,0.300,1161.000,0.500,801.000,1.000,106.000,5.000,0
"03/06/08","10:03:56",54892.000,"cc",28253.891,6.00,6,0.100,47257.000,0.200,5445.000,0.300,1258.000,0.500,839.000,1.000,93.000,5.000,0
"03/06/08","10:04:02",54940.000,"cc",28381.443,6.00,6,0.100,47434.000,0.200,5388.000,0.300,1204.000,0.500,810.000,1.000,104.000,5.000,0
"03/06/08","10:04:08",54964.000,"cc",28294.398,6.00,6,0.100,47458.000,0.200,5391.000,0.300,1175.000,0.500,850.000,1.000,90.000,5.000,0
"03/06/08","10:04:14",54584.000,"cc",28361.094,6.00,6,0.100,47179.000,0.200,5451.000,0.300,1112.000,0.500,748.000,1.000,94.000,5.000,0
"03/06/08","10:04:20",54425.000,"cc",28230.648,6.00,6,0.100,47043.000,0.200,5474.000,0.300,1098.000,0.500,736.000,1.000,74.000,5.000,0
"03/06/08","10:04:26",55006.000,"cc",28323.481,6.00,6,0.100,47496.000,0.200,5453.000,0.300,1132.000,0.500,831.000,1.000,94.000,5.000,0
"03/06/08","10:04:32",54846.000,"cc",28284.574,6.00,6,0.100,47409.000,0.200,5447.000,0.300,1163.000,0.500,745.000,1.000,82.000,5.000,0
"03/06/08","10:04:38",55235.000,"cc",28354.479,6.00,6,0.100,47857.000,0.200,5380.000,0.300,1116.000,0.500,788.000,1.000,94.000,5.000,0
"03/06/08","10:04:44",54893.000,"cc",28356.508,6.00,6,0.100,47463.000,0.200,5354.000,0.300,1203.000,0.500,792.000,1.000,81.000,5.000,0
"03/06/08","10:04:50",55119.000,"cc",28328.248,6.00,6,0.100,47681.000,0.200,5473.000,0.300,1141.000,0.500,753.000,1.000,71.000,5.000,0
"03/06/08","10:04:56",55142.000,"cc",28320.397,6.00,6,0.100,47548.000,0.200,5505.000,0.300,1231.000,0.500,779.000,1.000,79.000,5.000,0
"03/06/08","10:05:02",54805.000,"cc",28249.275,6.00,6,0.100,47268.000,0.200,5527.000,0.300,1178.000,0.500,750.000,1.000,82.000,5.000,0
"03/06/08","10:05:08",55005.000,"cc",28141.313,6.00,6,0.100,47543.000,0.200,5379.000,0.300,1185.000,0.500,791.000,1.000,107.000,5.000,0
"03/06/08","10:05:14",55100.000,"cc",28350.912,6.00,6,0.100,47444.000,0.200,5477.000,0.300,1234.000,0.500,840.000,1.000,105.000,5.000,0
"03/06/08","10:05:20",55074.000,"cc",28431.465,6.00,6,0.100,47370.000,0.200,5701.000,0.300,1174.000,0.500,751.000,1.000,78.000,5.000,0
"03/06/08","10:05:26",55076.000,"cc",28327.342,6.00,6,0.100,47609.000,0.200,5425.000,0.300,1138.000,0.500,809.000,1.000,95.000,5.000,0
"03/06/08","10:05:32",55151.000,"cc",28364.906,6.00,6,0.100,47603.000,0.200,5486.000,0.300,1220.000,0.500,774.000,1.000,68.000,5.000,0
"03/06/08","10:05:38",54985.000,"cc",28285.225,6.00,6,0.100,47339.000,0.200,5509.000,0.300,1223.000,0.500,817.000,1.000,97.000,5.000,0
"03/06/08","10:05:44",54810.000,"cc",28265.984,6.00,6,0.100,47084.000,0.200,5553.000,0.300,1235.000,0.500,837.000,1.000,101.000,5.000,0
"03/06/08","10:05:50",55035.000,"cc",28223.639,6.00,6,0.100,47425.000,0.200,5546.000,0.300,1154.000,0.500,825.000,1.000,85.000,5.000,0
"03/06/08","10:05:56",54967.000,"cc",28358.729,6.00,6,0.100,47251.000,0.200,5618.000,0.300,1229.000,0.500,778.000,1.000,91.000,5.000,0
"03/06/08","10:06:02",55056.000,"cc",28392.773,6.00,6,0.100,47398.000,0.200,5453.000,0.300,1222.000,0.500,857.000,1.000,126.000,5.000,0
"03/06/08","10:06:08",54656.000,"cc",28286.668,6.00,6,0.100,47179.000,0.200,5471.000,0.300,1191.000,0.500,748.000,1.000,67.000,5.000,0
"03/06/08","10:06:14",55082.000,"cc",28294.014,6.00,6,0.100,47541.000,0.200,5484.000,0.300,1213.000,0.500,748.000,1.000,96.000,5.000,0
"03/06/08","10:06:20",55122.000,"cc",28323.363,6.00,6,0.100,47640.000,0.200,5522.000,0.300,1128.000,0.500,739.000,1.000,93.000,5.000,0
"03/06/08","10:06:26",55002.000,"cc",28331.684,6.00,6,0.100,47604.000,0.200,5361.000,0.300,1164.000,0.500,785.000,1.000,88.000,5.000,0
"03/06/08","10:06:32",54761.000,"cc",28330.545,6.00,6,0.100,47328.000,0.200,5380.000,0.300,1172.000,0.500,791.000,1.000,90.000,5.000,0
"03/06/08","10:06:38",55400.000,"cc",28305.240,6.00,6,0.100,47827.000,0.200,5486.000,0.300,1201.000,0.500,786.000,1.000,100.000,5.000,0
"03/06/08","10:06:44",55178.000,"cc",28314.926,6.00,6,0.100,47472.000,0.200,5593.000,0.300,1198.000,0.500,830.000,1.000,85.000,5.000,0
"03/06/08","10:06:50",55125.000,"cc",28340.904,6.00,6,0.100,47603.000,0.200,5559.000,0.300,1114.000,0.500,762.000,1.000,87.000,5.000,0
"03/06/08","10:06:56",55165.000,"cc",28331.455,6.00,6,0.100,47421.000,0.200,5478.000,0.300,1262.000,0.500,899.000,1.000,105.000,5.000,0
"03/06/08","10:07:02",54486.000,"cc",28273.320,6.00,6,0.100,46962.000,0.200,5435.000,0.300,1196.000,0.500,807.000,1.000,86.000,5.000,0
"03/06/08","10:07:08",55503.000,"cc",28275.865,6.00,6,0.100,47628.000,0.200,5600.000,0.300,1260.000,0.500,915.000,1.000,100.000,5.000,0
"03/06/08","10:07:14",54608.000,"cc",28363.150,6.00,6,0.100,47065.000,0.200,5405.000,0.300,1217.000,0.500,825.000,1.000,96.000,5.000,0
"03/06/08","10:07:20",55305.000,"cc",28317.992,6.00,6,0.100,47577.000,0.200,5559.000,0.300,1196.000,0.500,857.000,1.000,116.000,5.000,0
"03/06/08","10:07:26",54822.000,"cc",28393.387,6.00,6,0.100,47326.000,0.200,5448.000,0.300,1128.000,0.500,821.000,1.000,99.000,5.000,0
"03/06/08","10:07:32",54621.000,"cc",28306.014,6.00,6,0.100,46884.000,0.200,5482.000,0.300,1213.000,0.500,918.000,1.000,124.000,5.000,0
"03/06/08","10:07:38",55022.000,"cc",28224.117,6.00,6,0.100,47374.000,0.200,5607.000,0.300,1126.000,0.500,814.000,1.000,101.000,5.000,0
"03/06/08","10:07:44",54363.000,"cc",28421.754,6.00,6,0.100,46722.000,0.200,5467.000,0.300,1231.000,0.500,833.000,1.000,110.000,5.000,0
"03/06/08","10:07:50",54978.000,"cc",28330.801,6.00,6,0.100,47124.000,0.200,5573.000,0.300,1259.000,0.500,902.000,1.000,120.000,5.000,0
"03/06/08","10:07:56",55273.000,"cc",28319.190,6.00,6,0.100,47543.000,0.200,5516.000,0.300,1164.000,0.500,933.000,1.000,117.000,5.000,0
"03/06/08","10:08:02",55178.000,"cc",28290.584,6.00,6,0.100,47404.000,0.200,5485.000,0.300,1218.000,0.500,939.000,1.000,132.000,5.000,0
"03/06/08","10:08:08",55029.000,"cc",28283.965,6.00,6,0.100,47149.000,0.200,5560.000,0.300,1265.000,0.500,937.000,1.000,118.000,5.000,0
"03/06/08","10:08:14",55230.000,"cc",28301.803,6.00,6,0.100,47325.000,0.200,5614.000,0.300,1226.000,0.500,916.000,1.000,149.000,5.000,0
"03/06/08","10:08:20",55077.000,"cc",28305.541,6.00,6,0.100,47432.000,0.200,5427.000,0.300,1223.000,0.500,880.000,1.000,115.000,5.000,0
"03/06/08","10:08:26",55095.000,"cc",28292.975,6.00,6,0.100,47246.000,0.200,5600.000,0.300,1205.000,0.500,930.000,1.000,114.000,5.000,0
"03/06/08","10:08:32",55132.000,"cc",28271.375,6.00,6,0.100,47275.000,0.200,5559.000,0.300,1209.000,0.500,956.000,1.000,133.000,5.000,0
"03/06/08","10:08:38",55603.000,"cc",28348.311,6.00,6,0.100,47647.000,0.200,5517.000,0.300,1299.000,0.500,984.000,1.000,156.000,5.000,0
"03/06/08","10:08:44",55253.000,"cc",28414.398,6.00,6,0.100,47364.000,0.200,5529.000,0.300,1282.000,0.500,973.000,1.000,105.000,5.000,0
"03/06/08","10:08:50",55231.000,"cc",28255.523,6.00,6,0.100,47399.000,0.200,5580.000,0.300,1193.000,0.500,942.000,1.000,117.000,5.000,0
"03/06/08","10:08:56",55067.000,"cc",28338.289,6.00,6,0.100,47197.000,0.200,5556.000,0.300,1183.000,0.500,983.000,1.000,148.000,5.000,0
"03/06/08","10:09:02",54659.000,"cc",28314.793,6.00,6,0.100,46717.000,0.200,5610.000,0.300,1239.000,0.500,949.000,1.000,144.000,5.000,0
"03/06/08","10:09:08",55177.000,"cc",28326.543,6.00,6,0.100,47463.000,0.200,5393.000,0.300,1186.000,0.500,988.000,1.000,147.000,5.000,0
"03/06/08","10:09:14",55308.000,"cc",28258.268,6.00,6,0.100,47242.000,0.200,5564.000,0.300,1270.000,0.500,1085.000,1.000,147.000,5.000,0
"03/06/08","10:09:20",55249.000,"cc",28358.592,6.00,6,0.100,47318.000,0.200,5567.000,0.300,1279.000,0.500,946.000,1.000,139.000,5.000,0
"03/06/08","10:09:26",54837.000,"cc",28306.176,6.00,6,0.100,46869.000,0.200,5618.000,0.300,1200.000,0.500,992.000,1.000,158.000,5.000,0
"03/06/08","10:09:32",55011.000,"cc",28299.555,6.00,6,0.100,47123.000,0.200,5462.000,0.300,1287.000,0.500,988.000,1.000,151.000,5.000,0
"03/06/08","10:09:38",55524.000,"cc",28322.422,6.00,6,0.100,47464.000,0.200,5688.000,0.300,1237.000,0.500,993.000,1.000,142.000,5.000,0
"03/06/08","10:09:44",55379.000,"cc",28294.773,6.00,6,0.100,47382.000,0.200,5580.000,0.300,1264.000,0.500,994.000,1.000,159.000,5.000,0
"03/06/08","10:09:50",55265.000,"cc",28380.508,6.00,6,0.100,47369.000,0.200,5545.000,0.300,1195.000,0.500,1007.000,1.000,149.000,5.000,0
"03/06/08","10:09:56",54996.000,"cc",28309.098,6.00,6,0.100,47137.000,0.200,5460.000,0.300,1253.000,0.500,1018.000,1.000,128.000,5.000,0
"03/06/08","10:10:02",55539.000,"cc",28279.799,6.00,6,0.100,47509.000,0.200,5501.000,0.300,1277.000,0.500,1091.000,1.000,161.000,5.000,0
"03/06/08","10:10:08",55217.000,"cc",28239.205,6.00,6,0.100,47153.000,0.200,5655.000,0.300,1250.000,0.500,1006.000,1.000,153.000,5.000,0
"03/06/08","10:10:14",55039.000,"cc",28364.656,6.00,6,0.100,47206.000,0.200,5389.000,0.300,1243.000,0.500,1034.000,1.000,167.000,5.000,0
"03/06/08","10:10:20",55686.000,"cc",28365.711,6.00,6,0.100,47621.000,0.200,5631.000,0.300,1244.000,0.500,1025.000,1.000,165.000,5.000,0
"03/06/08","10:10:26",54969.000,"cc",28368.496,6.00,6,0.100,47144.000,0.200,5453.000,0.300,1186.000,0.500,1023.000,1.000,163.000,5.000,0
"03/06/08","10:10:32",55333.000,"cc",28283.328,6.00,6,0.100,47364.000,0.200,5451.000,0.300,1288.000,0.500,1084.000,1.000,146.000,5.000,0
"03/06/08","10:10:38",55164.000,"cc",28296.309,6.00,6,0.100,47125.000,0.200,5615.000,0.300,1210.000,0.500,1034.000,1.000,180.000,5.000,0
"03/06/08","10:10:44",55313.000,"cc",28279.697,6.00,6,0.100,47186.000,0.200,5576.000,0.300,1271.000,0.500,1090.000,1.000,190.000,5.000,0
"03/06/08","10:10:50",55062.000,"cc",28337.563,6.00,6,0.100,47108.000,0.200,5490.000,0.300,1244.000,0.500,1055.000,1.000,165.000,5.000,0
"03/06/08","10:10:56",55539.000,"cc",28309.178,6.00,6,0.100,47273.000,0.200,5598.000,0.300,1333.000,0.500,1143.000,1.000,192.000,5.000,0
"03/06/08","10:11:02",55435.000,"cc",28388.080,6.00,6,0.100,47258.000,0.200,5578.000,0.300,1307.000,0.500,1105.000,1.000,187.000,5.000,0
"03/06/08","10:11:08",55090.000,"cc",28302.285,6.00,6,0.100,47017.000,0.200,5461.000,0.300,1268.000,0.500,1144.000,1.000,200.000,5.000,0
"03/06/08","10:11:14",54857.000,"cc",28317.867,6.00,6,0.100,47069.000,0.200,5397.000,0.300,1237.000,0.500,999.000,1.000,155.000,5.000,0
"03/06/08","10:11:20",55212.000,"cc",28367.783,6.00,6,0.100,47116.000,0.200,5533.000,0.300,1289.000,0.500,1070.000,1.000,204.000,5.000,0
"03/06/08","10:11:26",55465.000,"cc",28293.115,6.00,6,0.100,47389.000,0.200,5516.000,0.300,1253.000,0.500,1096.000,1.000,211.000,5.000,0
"03/06/08","10:11:32",55129.000,"cc",28386.592,6.00,6,0.100,47058.000,0.200,5482.000,0.300,1255.000,0.500,1161.000,1.000,173.000,5.000,0
"03/06/08","10:11:38",55350.000,"cc",28256.727,6.00,6,0.100,47309.000,0.200,5437.000,0.300,1306.000,0.500,1083.000,1.000,215.000,5.000,0
"03/06/08","10:11:44",55138.000,"cc",28342.293,6.00,6,0.100,46820.000,0.200,5619.000,0.300,1330.000,0.500,1139.000,1.000,230.000,5.000,0
"03/06/08","10:11:50",54968.000,"cc",28276.209,6.00,6,0.100,46877.000,0.200,5421.000,0.300,1327.000,0.500,1139.000,1.000,204.000,5.000,0
"03/06/08","10:11:56",55468.000,"cc",28305.055,6.00,6,0.100,47340.000,0.200,5517.000,0.300,1308.000,0.500,1085.000,1.000,218.000,5.000,0
"03/06/08","10:12:02",54578.000,"cc",28385.590,6.00,6,0.100,46367.000,0.200,5604.000,0.300,1276.000,0.500,1109.000,1.000,222.000,5.000,0
"03/06/08","10:12:08",55007.000,"cc",28268.008,6.00,6,0.100,46829.000,0.200,5514.000,0.300,1299.000,0.500,1136.000,1.000,229.000,5.000,0
"03/06/08","10:12:14",55130.000,"cc",28361.752,6.00,6,0.100,46937.000,0.200,5482.000,0.300,1333.000,0.500,1180.000,1.000,198.000,5.000,0
"03/06/08","10:12:20",55023.000,"cc",28244.051,6.00,6,0.100,46845.000,0.200,5489.000,0.300,1284.000,0.500,1170.000,1.000,235.000,5.000,0
"03/06/08","10:12:26",54952.000,"cc",28382.344,6.00,6,0.100,46851.000,0.200,5445.000,0.300,1258.000,0.500,1164.000,1.000,234.000,5.000,0
"03/06/08","10:12:32",54994.000,"cc",28302.811,6.00,6,0.100,46802.000,0.200,5517.000,0.300,1288.000,0.500,1163.000,1.000,224.000,5.000,0
"03/06/08","10:12:38",54985.000,"cc",28283.822,6.00,6,0.100,46752.000,0.200,5560.000,0.300,1232.000,0.500,1182.000,1.000,259.000,5.000,0
"03/06/08","10:12:44",55147.000,"cc",28345.633,6.00,6,0.100,46948.000,0.200,5494.000,0.300,1295.000,0.500,1165.000,1.000,245.000,5.000,0
"03/06/08","10:12:50",55265.000,"cc",28300.477,6.00,6,0.100,47047.000,0.200,5566.000,0.300,1243.000,0.500,1163.000,1.000,246.000,5.000,0
"03/06/08","10:12:56",54884.000,"cc",28348.516,6.00,6,0.100,46663.000,0.200,5489.000,0.300,1280.000,0.500,1220.000,1.000,232.000,5.000,0
"03/06/08","10:13:02",55075.000,"cc",28260.672,6.00,6,0.100,46837.000,0.200,5608.000,0.300,1285.000,0.500,1139.000,1.000,206.000,5.000,0
"03/06/08","10:13:08",55509.000,"cc",28298.389,6.00,6,0.100,47199.000,0.200,5519.000,0.300,1358.000,0.500,1215.000,1.000,218.000,5.000,0
"03/06/08","10:13:14",54878.000,"cc",28295.934,6.00,6,0.100,46574.000,0.200,5494.000,0.300,1383.000,0.500,1197.000,1.000,230.000,5.000,0
"03/06/08","10:13:20",54890.000,"cc",28311.020,6.00,6,0.100,46785.000,0.200,5506.000,0.300,1221.000,0.500,1153.000,1.000,225.000,5.000,0
"03/06/08","10:13:26",55089.000,"cc",28306.367,6.00,6,0.100,46866.000,0.200,5620.000,0.300,1247.000,0.500,1156.000,1.000,200.000,5.000,0
"03/06/08","10:13:32",54869.000,"cc",28416.172,6.00,6,0.100,46781.000,0.200,5580.000,0.300,1311.000,0.500,1005.000,1.000,192.000,5.000,0
"03/06/08","10:13:38",54740.000,"cc",28351.961,6.00,6,0.100,46767.000,0.200,5474.000,0.300,1284.000,0.500,1017.000,1.000,198.000,5.000,0
"03/06/08","10:13:44",55429.000,"cc",28351.100,6.00,6,0.100,47171.000,0.200,5594.000,0.300,1321.000,0.500,1102.000,1.000,241.000,5.000,0
"03/06/08","10:13:50",54703.000,"cc",28297.227,6.00,6,0.100,46450.000,0.200,5639.000,0.300,1327.000,0.500,1099.000,1.000,188.000,5.000,0
"03/06/08","10:13:56",55257.000,"cc",28264.734,6.00,6,0.100,47319.000,0.200,5518.000,0.300,1228.000,0.500,1028.000,1.000,164.000,5.000,0
"03/06/08","10:14:02",55037.000,"cc",28292.686,6.00,6,0.100,46968.000,0.200,5642.000,0.300,1221.000,0.500,1026.000,1.000,180.000,5.000,0
"03/06/08","10:14:08",55045.000,"cc",28313.248,6.00,6,0.100,46983.000,0.200,5572.000,0.300,1226.000,0.500,1037.000,1.000,227.000,5.000,0
"03/06/08","10:14:14",54685.000,"cc",28363.389,6.00,6,0.100,46763.000,0.200,5465.000,0.300,1229.000,0.500,1083.000,1.000,145.000,5.000,0
"03/06/08","10:14:20",54866.000,"cc",28266.248,6.00,6,0.100,46678.000,0.200,5649.000,0.300,1244.000,0.500,1081.000,1.000,214.000,5.000,0
"03/06/08","10:14:26",54927.000,"cc",28370.660,6.00,6,0.100,46847.000,0.200,5715.000,0.300,1223.000,0.500,984.000,1.000,158.000,5.000,0
"03/06/08","10:14:32",54948.000,"cc",28341.297,6.00,6,0.100,46932.000,0.200,5623.000,0.300,1264.000,0.500,988.000,1.000,141.000,5.000,0
"03/06/08","10:14:38",54818.000,"cc",28325.816,6.00,6,0.100,46819.000,0.200,5584.000,0.300,1240.000,0.500,1011.000,1.000,164.000,5.000,0
"03/06/08","10:14:44",54459.000,"cc",28364.137,6.00,6,0.100,46658.000,0.200,5577.000,0.300,1226.000,0.500,895.000,1.000,103.000,5.000,0
"03/06/08","10:14:50",54491.000,"cc",28260.307,6.00,6,0.100,46591.000,0.200,5630.000,0.300,1195.000,0.500,908.000,1.000,167.000,5.000,0
"03/06/08","10:14:56",54970.000,"cc",28320.416,6.00,6,0.100,47008.000,0.200,5630.000,0.300,1197.000,0.500,994.000,1.000,141.000,5.000,0
"03/06/08","10:15:02",54679.000,"cc",28305.447,6.00,6,0.100,46656.000,0.200,5664.000,0.300,1203.000,0.500,1008.000,1.000,148.000,5.000,0
"03/06/08","10:15:08",54762.000,"cc",28283.172,6.00,6,0.100,46733.000,0.200,5642.000,0.300,1212.000,0.500,1014.000,1.000,161.000,5.000,0
"03/06/08","10:15:14",54820.000,"cc",28355.674,6.00,6,0.100,46880.000,0.200,5607.000,0.300,1209.000,0.500,962.000,1.000,162.000,5.000,0
"03/06/08","10:15:20",54571.000,"cc",28277.674,6.00,6,0.100,46555.000,0.200,5644.000,0.300,1205.000,0.500,1014.000,1.000,153.000,5.000,0
"03/06/08","10:15:26",54995.000,"cc",28300.065,6.00,6,0.100,46955.000,0.200,5705.000,0.300,1214.000,0.500,976.000,1.000,144.000,5.000,1.000
"03/06/08","10:15:32",54808.000,"cc",28294.752,6.00,6,0.100,46897.000,0.200,5635.000,0.300,1192.000,0.500,948.000,1.000,136.000,5.000,0
"03/06/08","10:15:38",54850.000,"cc",28336.248,6.00,6,0.100,46834.000,0.200,5667.000,0.300,1233.000,0.500,967.000,1.000,149.000,5.000,0
"03/06/08","10:15:44",54705.000,"cc",28288.432,6.00,6,0.100,46727.000,0.200,5600.000,0.300,1233.000,0.500,1006.000,1.000,139.000,5.000,0
"03/06/08","10:15:50",54725.000,"cc",28286.504,6.00,6,0.100,46768.000,0.200,5620.000,0.300,1228.000,0.500,947.000,1.000,162.000,5.000,0
"03/06/08","10:15:56",54966.000,"cc",28410.395,6.00,6,0.100,47023.000,0.200,5590.000,0.300,1204.000,0.500,978.000,1.000,171.000,5.000,0
"03/06/08","10:16:02",54871.000,"cc",28327.500,6.00,6,0.100,46863.000,0.200,5612.000,0.300,1183.000,0.500,1059.000,1.000,154.000,5.000,0
"03/06/08","10:16:08",55227.000,"cc",28191.514,6.00,6,0.100,47170.000,0.200,5709.000,0.300,1175.000,0.500,1018.000,1.000,155.000,5.000,0
"03/06/08","10:16:14",54812.000,"cc",28306.668,6.00,6,0.100,46653.000,0.200,5713.000,0.300,1230.000,0.500,1051.000,1.000,165.000,5.000,0
"03/06/08","10:16:20",54695.000,"cc",28324.783,6.00,6,0.100,46779.000,0.200,5700.000,0.300,1137.000,0.500,916.000,1.000,163.000,5.000,0
"03/06/08","10:16:26",54751.000,"cc",28342.018,6.00,6,0.100,46786.000,0.200,5660.000,0.300,1182.000,0.500,980.000,1.000,143.000,5.000,0